sat.trackr.live / text

‹ back to catalog

UNKNOWN

NORAD 82739

UNKNOWN UNKNOWN UNKNOWN

§ Identity

Operator
Country
Launch date
Launch site
Launch vehicle
Mass (kg)
RCS (m²)

External: N2YO · Heavens-Above

§ Orbital elements

Epoch: 2026-05-23T09:23:31.877088Z

Period
104.11 min
Inclination
99.1022°
Eccentricity
0.0170045
Mean motion
13.83108146 rev/d
Perigee alt
828.2 km
Apogee alt
1,077.5 km
Semi-major
7,331.0 km
B*
1.0359e-3
RAAN
299.3330°
Arg perigee
219.7572°
Mean anomaly
168.7537°
Rev number
62,845

§ Raw data

UNKNOWN1 82739U          26143.39134117  .00001224  00000+0  10359-2 0  99922 82739  99.1022 299.3330 0170045 219.7572 168.7537 13.83108146628450

JSON: /api/v1/satellites/82739 · /tle

For live sub-satellite position, see the globe view (requires WebGL).

§ Visibility from observer

Set your observer location to see the next 7 days of passes ≥ 10°. The values pass through the URL so the page stays shareable.

No JS? Fill the form by hand. The geolocation button needs JavaScript.